Find the Weather for any City, State  
or Zipcode, or Country:

West Linn, OR 97068 Weather
Local Radar
Local Radar  
Graphs, Details
Graphs and Gauges
Detailed Weather
Detailed Reports
Maps
Temperature
Heat Index
Windchill
Humidity
Radar
Dew Point
Wind
Visibility
Visible Satellite
Satellite
Fronts
Snow Depth
Jet Stream
Flight Rules
Forecast Maps
Temperature Forecast
Maximum Temperature Forecast
Minimum Temperature Forecast
Dewpoint Forecast
Prevalent Weather
12Hr Probability of Precip.
Sky Cover
Health Maps
UV Forecast
Air Quality
Peak Air Quality Index
Weather Station
Oregon Scientific WMR-968
Current Conditions [Select Refresh to Update]
Updated: 8:45pm on 9/19/14
(location)
Currently:
70.5°
Clear
Clear
High: 74.7° 
(5:02pm) 
Low: 60.8° 
(7:19am)
Wind: 0 mph from the N
Gust: 0 mph
Today's High Wind: 10 mph (3:12pm)
Humidity: 62%
Pressure: 30.05 in  (Steady) 
Pressure Rate: 0.010 in/hr
Dew Point: 56.9°
Wind Chill: 70.5°
Heat Index (feels like): 72.5°
Comfort Level: Comfortable
Temperature Rate:  -1.42°/hr
 
5 Day Forecast
 
Fri Sat Sun Mon Tue
Clear Clear Clear Clear Clear
Partly Cloudy Clear Clear Partly Cloudy Mostly Cloudy
81° 93° 86° 79° 77°
54° 59° 55° 54° 54°
Records and Normals
 
Temperature Forecast Normal Record
High 81°
(0)
Low 54°
(0)
 
Weather Advisories
No Advisories
Full Advisory Text...
Weather Map
Almanac
 
Sunrise:  
6:56am
Moonrise: 
2:35am
Moon Phase:
21%
Sunset: 
7:16pm
Moonset:  
4:54pm
 Star Chart...
Rainfall Totals
Hourly Rain 0.00 in
Daily Rain: 0.00 in
Monthly Rain: 0.12 in
Yearly Rain: 35.12 in
Normal Rain, month to date: 0.00 in
Normal Rain, year to date: 0.00 in
Local Weather Exchange® Network
Station ID City 
(Click for Map Location)
Neighborhood 
(Click for History)
Last Update (Date & Time) Temperature
 (°)
Dew
Point (°)
Humidity 
(%)
Wind 
(mph)
from the Wind Gust 
(mph) 
Pressure (in) Hourly
Rain (in)
KORWESTL3 West Linn Sunburst II 09/19 20:44:08 70.7 57.0 62 3 NE 4 30.05 0.00
KORWESTL7 West Linn Hidden Springs 09/19 20:44:30 71.4 59.0 64 0 NNE 5 29.99 0.00
KORWESTL11 West Linn Ridgebrook Park 09/19 20:36:50 68.9 59.0 70 0 North 6 30.02 0.00
KORWESTL13 West Linn Vineland 09/19 20:44:33 69.8 44.0 39 0 West 0 29.77 0.00
KORWESTL1 West Linn Beaver Nation on Skyline Ridge 09/19 20:44:55 69.1 59.0 70 0 North 0 30.02 0.00
MORCO3 West Linn HADS WILLAMETTE RIVER BELOW OREGON CI OR US USGS 09/19 19:15:00 75.0 55.0 50 1 SW 4 29.94 0.00
KORLAKEO12 Lake Oswego Marylhurst University 09/19 20:44:39 69.3 55.0 60 0 SW 0 29.93 0.00
KORGLADS5 GLADSTONE GLADSTONE (USA) 09/19 20:44:56 72.4 58.0 61 0 WSW 2 29.73 0.00
KOROREGO14 Oregon City 221 Molalla Avenue 09/19 20:45:00 70.0 57.0 63 2 NNE 2 29.69 0.00
KOROREGO10 Oregon City Tower Vista 09/19 20:44:58 69.8 50.0 49 2 NW 2 30.03 0.00
KORGLADS6 Gladstone Gladstone - Gallweather.com 09/19 20:40:26 71.1 58.0 64 1 North 1 29.99 0.00
KORPORTL111 Portland Oakgrove PO 1E (Milwaukie) 09/19 20:45:04 72.1 60.0 67 1 NNE 1 29.99 0.00
KORGLADS4 Gladstone Gladstone - Go Beavers! 09/19 20:44:35 70.3 58.0 65 0 NE 1 29.92 0.00
KORLAKEO14 Lake Oswego Rivergrove 09/19 20:40:16 65.6 60.0 82 0 North 0 29.93 0.00
KOROREGO6 Oregon City Gaffney Lane Neighborhood 09/19 20:44:52 71.8 58.0 62 2 NW 6 29.89 0.00
KORMILWA9 Milwaukie Milwaukie @ 205 Clackamas 09/19 20:40:05 71.6 39.0 31 0 NNW 5 29.72 0.00
KORCLACK9 Clackamas 82nd Drive (GO BLAZERS) 09/19 20:45:05 72.5 59.0 62 0 WNW 1 29.99 0.00
KORCLACK8 Clackamas Watkins Park 09/19 20:45:02 73.0 57.0 58 5 NNW 10 29.96 0.00
KORCLACK6 Clackamas CHPCS Falcons 09/19 20:42:35 72.5 58.0 61 0 NE 0 29.91 0.00
KORLAKEO16 Lake Oswego Portland Near Road 09/19 20:40:58 75.7 0.0 52 5 North 0 --- 0.00
KORTUALA2 Tualatin 3DAdams Weather 09/19 20:45:04 72.4 59.0 62 0 NW 0 30.01 0.00
KORTUALA3 Tualatin Tualatin 09/19 20:44:19 72.4 53.0 51 0 NNW 0 30.05 0.00
KORMILWA5 Milwaukie meso_neigh23 09/19 20:45:02 71.9 59.0 63 0 NE 7 29.97 0.00
KORMILWA6 Milwaukie Logus-Stanley 09/19 20:44:40 70.9 58.0 64 1 East 2 30.03 0.00
KORPORTL104 Portland West Portland Park 09/19 20:44:26 69.9 56.0 62 0 NE 0 29.98 0.00
KOROREGO23 Oregon City Bradley Rd 09/19 20:40:07 67.5 55.0 64 0 NNE 0 29.99 0.00
KORCANBY8 Canby Quarter Moon Ranch Weather 09/19 20:44:21 66.4 59.0 77 0 WNW 0 29.63 0.00
KORPORTL227 Portland Ardenwald Station #1 09/19 20:42:51 71.4 59.0 64 0 NNW 1 30.00 0.00
KORPORTL172 Portland Portland Rowing Club 09/19 20:45:00 69.1 61.0 75 0 North 0 30.03 0.00
KORPORTL200 Portland South Burlingame 09/19 20:45:00 71.5 58.0 63 0 North 0 29.66 0.00
KORTUALA7 Tualatin Lake Forest 09/19 20:44:21 70.5 44.0 38 0 ESE 0 29.77 0.00
KORCANBY3 Canby West of Fair Grounds 09/19 20:45:05 68.6 56.0 65 0 South 0 30.02 0.00
KORWILSO8 Wilsonville Charbonneau Lakeside 09/19 20:40:12 69.0 62.0 77 0 North 0 29.49 0.00
KORWILSO7 Wilsonville The Village at Main Street 09/19 20:45:05 73.8 45.0 36 0 North 0 0.00 0.00
KORPORTL216 Portland Smith School 09/19 20:44:49 68.4 58.0 70 0 South 2 30.03 0.00
KORPORTL102 Portland Woodstock 09/19 20:42:20 71.9 60.0 66 4 NNW 0 29.94 0.00
KORHAPPY5 Happy Valley Mt. Scott Summit 09/19 20:45:04 64.4 58.0 79 0 North 4 30.04 0.00
KUAO Aurora Official Station 09/19 19:53:00 71.0 56.0 59 6 North --- 30.02 ---
KPDX Portland Official Station 09/19 19:53:00 73.0 59.0 61 8 NW --- 30.01 ---
KVUO Vancouver Official Station 09/19 19:53:00 74.0 56.0 53 6 North --- 30.01 ---
Full Advisory Text
No Warnings

© Ambient Weather and Weather Underground
 Never base important decisions on this or any weather information obtained from the Internet
Updated Automatically by Ambient Weather's Virtual Weather Station  V13.01